Location: Alafon
(8.4500°N, 4.2333°E)
Time: 16:15:23
(UTC+00:00)

Transit 2A - Pass Details

Date: 09 August 2021
Orbit: 595 x 964 km, 66.7° (Epoch: 18 September)

Event Time Altitude Azimuth Distance (km) Brightness Sun altitude
Rises 12:57:44 0° 5° (N) 3,492 9.5 71.6°
Reaches altitude 10° 13:00:53 10° 22° (NNE) 2,603 8.9 70.9°
Maximum altitude 13:05:16 20° 68° (ENE) 2,014 8.3 69.9°
Drops below altitude 10° 13:09:46 10° 114° (ESE) 2,688 8.7 68.9°
Sets 13:13:02 0° 129° (SE) 3,640 9.3 68.1°
